Piney Island, NC

5:22 AM EDT on June 29, 2017 (GMT -0400)
Piney Island

Weather History for KNBT - October, 2013

Change the Weather History Date:

Wednesday, October 2, 2013

  Actual Average (KMRH) Record (KMRH)
Temperature  
Mean Temperature 74 °F -  
Max Temperature 84 °F 79 °F 88 °F (1954)
Min Temperature 64 °F 60 °F 42 °F (1992)
Cooling Degree Days 9    
Growing Degree Days 24 (Base 50)    
Moisture  
Dew Point 63 °F    
Average Humidity 72    
Maximum Humidity 90    
Minimum Humidity 49    
Precipitation  
Precipitation 0.00 in - - ()
Sea Level Pressure  
Sea Level Pressure 30.11 in    
Wind  
Wind Speed 6 mph (SW)    
Max Wind Speed 10 mph    
Max Gust Speed -    
Visibility 10 miles    
Events      
Averages and records for this station are not official NWS values.
T = Trace of Precipitation, MM = Missing Value Source: NWS Daily Summary

Daily Weather History Graph

Daily Weather History Graph

Search for Another Location

Airport or City:

Trip Planner

Search our weather history database for the weather conditions in past years. The results will help you decide how hot, cold, wet, or windy it might be!

Date:

Astronomy

Oct. 02, 2013 Rise Set
Actual Time 7:01 AM EDT 6:48 PM EDT
Civil Twilight 6:36 AM EDT 7:13 PM EDT
Nautical Twilight 6:06 AM EDT 7:42 PM EDT
Astronomical Twilight 5:37 AM EDT 8:12 PM EDT
Moon 4:36 AM EDT (10/2) 5:19 PM EDT (10/2)
Length of Visible Light 12h 37m
Length of Day
11h 46m
Waning Crescent, 6% of the Moon is Illuminated
Oct 2
Waning Crescent
Oct 4
New
Oct 11
First Quarter
Oct 18
Full
Oct 26
Last Quarter

Hourly Weather History & Observations

Time (EDT) Temp. Heat Index Dew Point Humidity Pressure Visibility Wind Dir Wind Speed Gust Speed Precip Events Conditions
12:56 AM 66.0 °F - 60.1 °F 81% 30.11 in 10.0 mi SW 4.6 mph - N/A   Clear
1:56 AM 64.9 °F - 60.1 °F 84% 30.11 in 10.0 mi SSW 5.8 mph - N/A   Clear
2:56 AM 64.0 °F - 60.1 °F 87% 30.10 in 10.0 mi West 5.8 mph - N/A   Clear
3:56 AM 66.0 °F - 60.1 °F 81% 30.09 in 10.0 mi West 5.8 mph - N/A   Clear
4:56 AM 66.0 °F - 61.0 °F 84% 30.09 in 10.0 mi WSW 5.8 mph - N/A   Clear
5:56 AM 64.9 °F - 61.0 °F 87% 30.10 in 10.0 mi West 6.9 mph - N/A   Clear
6:56 AM 64.9 °F - 62.1 °F 90% 30.11 in 10.0 mi West 4.6 mph - N/A   Clear
7:56 AM 66.9 °F - 63.0 °F 87% 30.12 in 10.0 mi West 4.6 mph - N/A   Clear
8:56 AM 71.1 °F - 63.0 °F 75% 30.14 in 10.0 mi West 8.1 mph - N/A   Clear
9:56 AM 73.9 °F - 62.1 °F 66% 30.14 in 10.0 mi West 10.4 mph - N/A   Clear
10:56 AM 78.1 °F - 61.0 °F 56% 30.14 in 10.0 mi West 8.1 mph - N/A   Clear
11:56 AM 81.0 °F 81.9 °F 62.1 °F 52% 30.13 in 10.0 mi WNW 6.9 mph - N/A   Clear
12:56 PM 82.0 °F 83.0 °F 62.1 °F 51% 30.11 in 10.0 mi WNW 5.8 mph - N/A   Clear
1:56 PM 84.0 °F 84.9 °F 63.0 °F 49% 30.09 in 10.0 mi Variable 4.6 mph - 0.00 in   Clear
2:56 PM 82.9 °F 83.7 °F 62.1 °F 49% 30.07 in 10.0 mi ENE 5.8 mph - N/A   Clear
3:56 PM 82.0 °F 83.0 °F 62.1 °F 51% 30.06 in 10.0 mi East 6.9 mph - N/A   Clear
4:56 PM 82.9 °F 84.0 °F 63.0 °F 51% 30.06 in 10.0 mi SSE 9.2 mph - N/A   Clear
5:56 PM 80.1 °F 81.5 °F 63.0 °F 56% 30.07 in 10.0 mi South 6.9 mph - N/A   Clear
6:56 PM 75.0 °F - 64.0 °F 69% 30.09 in 10.0 mi SSW 6.9 mph - N/A   Clear
7:56 PM 71.1 °F - 64.0 °F 78% 30.10 in 10.0 mi SSW 6.9 mph - N/A   Clear
8:56 PM 69.1 °F - 64.9 °F 87% 30.11 in 10.0 mi SSW 4.6 mph - N/A   Clear
9:56 PM 69.1 °F - 64.9 °F 87% 30.12 in 10.0 mi SSW 5.8 mph - N/A   Clear
10:56 PM 70.0 °F - 66.0 °F 87% 30.13 in 10.0 mi SW 4.6 mph - N/A   Clear
11:56 PM 70.0 °F - 66.0 °F 87% 30.14 in 9.0 mi SW 5.8 mph - N/A   Clear